Location: Stockholm
(59.3333°N, 18.0500°E)
Time: 02:41:38
(UTC+02:00)

ISS - Pass Details

Date: 17 May 2021
Orbit: 417 x 422 km, 51.6° (Epoch: 16 June)

Event Time Altitude Azimuth Distance (km) Brightness Sun altitude
Rises 00:28:52 0° 251° (WSW) 2,369 -0.1 -11.3°
Reaches altitude 10° 00:31:15 10° 236° (SW) 1,505 -1.2 -11.3°
Maximum altitude 00:33:56 22° 183° (S) 971 -2.5 -11.3°
Drops below altitude 10° 00:36:38 10° 130° (SE) 1,507 -1.3 -11.3°
Sets 00:39:01 0° 115° (ESE) 2,372 -0.2 -11.3°
